Regional Weather Roundup
Issued by NWS Jackson, KY

Home | Current Version | Previous Version | Text Only | Print | Product List | Glossary Off
Versions: 1 2 3 4 5 6 7 8 9 10 11 12 13 14 15 16 17 18 19 20 21 22 23 24 25 26 27 28 29 30 31 32 33 34 35 36 37 38 39 40 41 42 43 44 45 46 47 48 49 50

000
ASUS43 KJKL 040610
RWRJKL

EAST KENTUCKY HOURLY WEATHER ROUNDUP
NATIONAL WEATHER SERVICE JACKSON KY
200 AM EDT SAT JUL 04 2015

NOTE: "FAIR" INDICATES FEW OR NO CLOUDS BELOW 12,000 FEET WITH
NO SIGNIFICANT WEATHER AND/OR OBSTRUCTIONS TO VISIBILITY.

* THESE REPORTS ARE NOT UNDER NWS QUALITY CONTROL AND MAY NOT
  REPORT WEATHER SUCH AS PRECIPITATION AND FOG.

KYZ079-080-083-085-087-088-110-112-115-119-120-040700
...EASTERN KENTUCKY...

CITY           SKY/WX    TMP DP  RH WIND       PRES   REMARKS
JACKSON        CLOUDY    67  66  97 CALM      29.93R FOG
6HR MIN TEMP:  66; 6HR MAX TEMP:  69; 6HR PCP:  0.13;

LONDON         CLOUDY    69  64  84 SW8       29.93F
6HR MIN TEMP:  68; 6HR MAX TEMP:  71; 6HR PCP:  0.54;

SOMERSET*      LGT RAIN  68  68 100 SW7       29.93F
MONTICELLO*    MOCLDY    70  70 100 CALM      29.95F
6HR MIN TEMP:  69; 6HR MAX TEMP:  72;

MIDDLESBORO*   CLOUDY    68  68 100 CALM      29.96F
6HR MIN TEMP:  68; 6HR MAX TEMP:  74; 6HR PCP:  0.18;

HARLAN APT*      N/A     66  66 100 N3        29.96S
HAZARD APT*    CLOUDY    68  68 100 SW5       29.94R
BLACK MTN*       N/A     61  61 100 SW5         N/A
PIKEVILLE APT* CLOUDY    66  66 100 CALM      29.94R
BIG SANDY*     CLOUDY    68  67  98 W3        29.92R
6HR MIN TEMP:  68; 6HR MAX TEMP:  74;

MOREHEAD APT*  CLOUDY    68  66  94 CALM      29.93R FOG
$$

KYZ035-036-041-042-044-050-067-078-099-040700
...CENTRAL KENTUCKY...

CITY           SKY/WX    TMP DP  RH WIND       PRES   REMARKS
MT STERLING*   CLOUDY    68  68 100 CALM      29.92R
FLEMING/MASON* CLOUDY    64  64 100 CALM      29.92R FOG
DANVILLE*      DRIZZLE   68  66  94 SW3       29.93S
RICHMOND*      CLOUDY    68  66  94 SW5       29.92R
LEXINGTON      FOG       68  67  96 SW3       29.91R VSB 3/4
6HR MIN TEMP:  67; 6HR MAX TEMP:  71; 6HR PCP:  0.08;

FRANKFORT      CLOUDY    69  67  93 CALM      29.90R FOG
6HR MIN TEMP:  67; 6HR MAX TEMP:  74; 6HR PCP:  1.09;

$$

KYZ091>093-OHZ055-061-077-WVZ005-015-034-035-042-040700
...SOUTHERN OHIO/WEST VIRGINIA...

CITY           SKY/WX    TMP DP  RH WIND       PRES   REMARKS
COVINGTON      CLOUDY    68  64  87 NW3       29.92R
COLUMBUS       CLOUDY    65  64  97 N3        29.89S
DAYTON         MOCLDY    64  62  93 NE6       29.93S FOG
WILMINGTON     MOCLDY    63  61  93 N3        29.92S FOG
HUNTINGTON     FOG       68  68 100 CALM      29.88S VSB 3/4
CHARLESTON     LGT RAIN  70  68  93 SW3       29.88S
PINEVILLE*     CLOUDY    67  67 100 MISG      29.99R
BECKLEY        CLOUDY    66  63  90 SW5       29.96S
BLUEFIELD      LGT RAIN  67  63  87 W7        29.99F
$$

VAZ002-007-008-TNZ017-027-036-066-071-040700
...SOUTHWEST VIRGINIA/EAST TENNESSEE...

CITY           SKY/WX    TMP DP  RH WIND       PRES   REMARKS
WISE*          CLOUDY    64  64 100 SW6       30.00F
JONESVILLE*      N/A    N/A N/A N/A MISG        N/A
ABINGDON*      HVY RAIN  66  66 100 CALM      29.98F
BRISTOL        LGT RAIN  70  65  84 SW17      29.96S
KNOXVILLE      MOCLDY    69  65  86 SW10      29.95F
OAK RIDGE      MOCLDY    70  66  87 CALM      29.97F
CROSSVILLE     CLOUDY    67  64  90 CALM      30.00S
NASHVILLE      MOCLDY    72  70  94 CALM      29.93S
$$

...KEY TO REMARKS...
VSB - VISIBILITY IN MILES
WCI - WIND CHILL INDEX
HX  - HEAT INDEX

$$



USA.gov is the U.S. government's official web portal to all federal, state and local government web resources and services.